Location: Betz
(49.1556°N, 2.9558°E)
Time: 16:23:03
(UTC+00:00)

Cosmos 2263 Rocket - Pass Details

Date: 18 September 2019
Orbit: 824 x 848 km, 71.0° (Epoch: 13 October)

Event Time Altitude Azimuth Distance (km) Brightness Sun altitude
Exits shadow 23:06:48 27° 8° (N) 1,597 4.0 -38.6°
Drops below altitude 10° 23:09:24 10° 21° (NNE) 2,480 5.2 -38.7°
Sets 23:11:56 0° 27° (NNE) 3,416 6.0 -38.7°
